Miscellaneous Local Product
Issued by NWS Hastings, NE

Home | Current Version | Previous Version | Graphics & Text | Print | Product List | Glossary On
Versions: 1 2 3 4 5 6 7 8 9 10 11 12 13 14 15 16 17 18 19 20 21 22 23 24 25 26 27 28 29 30 31 32 33 34 35 36 37 38 39 40 41 42 43 44 45 46 47 48 49 50
009
AXUS43 KGID 282102
MISGRI

GID CWA HOURLY WEATHER ROUNDUP
NATIONAL WEATHER SERVICE HASTINGS NE
400 PM CDT SUN AUG 28 2016

NOTE: "FAIR" INDICATES FEW OR NO CLOUDS BELOW 12,000 FEET WITH NO
SIGNIFICANT WEATHER AND/OR OBSTRUCTIONS TO VISIBILITY.

...SOUTH CENTRAL NEBRASKA...

CITY           SKY/WX    TMP DP  RH WIND       PRES   REMARKS
GRAND ISLAND   CLOUDY    89  68  49 SE14      30.05F HX  93
HASTINGS       SUNNY     89  65  44 S10       30.06F HX  91
KEARNEY        MOSUNNY   84  63  48 S9        30.05S
ORD            MOSUNNY   88  60  38 S15G23    30.03F
YORK           MOSUNNY   90  68  48 S13       30.05F HX  93
AURORA         MOSUNNY   88  66  48 S12G18    30.05F HX  90
LEXINGTON      CLOUDY    82  62  50 SE12      30.07S
HOLDREGE       MOSUNNY   82  63  52 S10       30.07F
HEBRON         MOSUNNY   87  69  55 S9G20     30.04F HX  90

...NEBRASKA PANHANDLE...

CITY           SKY/WX    TMP DP  RH WIND       PRES   REMARKS
CHADRON        SUNNY     94  30  10 S6        29.98F
ALLIANCE       MOSUNNY   89  50  26 S13       30.06F
SCOTTSBLUFF    PTSUNNY   88  35  15 CALM      30.06F
SIDNEY         CLOUDY    87  50  27 SE15      30.11S

...WESTERN AND NORTH CENTRAL NEBRASKA...

CITY           SKY/WX    TMP DP  RH WIND       PRES   REMARKS
VALENTINE      NOT AVBL
AINSWORTH      SUNNY     90  59  35 S16       30.01F
ONEILL         SUNNY     93  54  26 S15G24    30.02F HX  91
BROKEN BOW     SUNNY     87  62  43 S17G24    30.05F
IMPERIAL       SUNNY     86  52  30 S18G24    30.07F
NORTH PLATTE   SUNNY     90  55  30 S13G26    30.05S
MCCOOK         CLOUDY    81  61  50 S8        30.08F

...EASTERN NEBRASKA...

CITY           SKY/WX    TMP DP  RH WIND       PRES   REMARKS
NORFOLK        PTSUNNY   86  68  54 S14       30.04F
SO SIOUX CITY  MOSUNNY   88  74  63 S12       30.04F HX  96
TEKAMAH        PTSUNNY   88  73  61 SE7       30.04F HX  95
COLUMBUS       PTSUNNY   88  68  51 SE12      30.05F HX  91
ALBION         CLOUDY    86  63  45 S10G18    30.05F
OMAHA EPPLEY   CLOUDY    89  71  55 S16       30.04F HX  95
OFFUTT AFB     CLOUDY    85  75  72 S15       30.06S HX  94
MILLARD        CLOUDY   N/A N/A N/A S10       30.05S
LINCOLN        MOSUNNY   88  66  48 SE12      30.06F HX  90
NEBRASKA CITY  TSTM      67  67 100 NE16G54   30.13R VSB 1/2
BEATRICE       MOSUNNY   89  70  53 S12       30.05F HX  93
FALLS CITY     TSTM      73  69  87 SE9       30.08F

...NORTHERN KANSAS...

CITY           SKY/WX    TMP DP  RH WIND       PRES   REMARKS
GOODLAND       MOSUNNY   83  56  39 S15       30.10F
HILL CITY      SUNNY     85  63  47 S7        30.06F
NORTON         CLEAR     81  55  41 SE12      30.07F
SMITH CENTER   MOSUNNY   88  64  45 S12       30.05F
BELOIT         PTSUNNY   82  64  54 SE9       30.02F
HAYS           CLOUDY    84  61  45 SE8       30.06F
RUSSELL        MOSUNNY   86  66  51 S7        30.04F
CONCORDIA      MOSUNNY   89  68  49 S18       30.04F HX  93
SALINA         SUNNY     91  68  46 S14       30.04F HX  95
TOPEKA         MOSUNNY   89  71  55 SE12      30.05F HX  95



USA.gov is the U.S. government's official web portal to all federal, state and local government web resources and services.